Location: Wildlife_Club
(35.6000°N, 81.4330°W)
Time: 13:00:43
(UTC-04:00)

ISS - Pass Details

Date: 27 May 2019
Orbit: 407 x 418 km, 51.6° (Epoch: 20 June)

Event Time Altitude Azimuth Distance (km) Brightness Sun altitude
Rises 21:56:42 0° 323° (NW) 2,353 1.7 -15.0°
Enters shadow 22:05:21 -4° 55° (NE) 2,870 0.4 -16.3°
Exits shadow 22:37:45 -67° 116° (ESE) 12,199 3.6 -20.9°
Reaches altitude 10° 23:37:05 10° 4° (N) 1,496 -0.3 -27.7°
